Location: Unspecified
(0.0000°N, 0.0000°E)
Time: 03:59:59
(UTC+00:00)

CZ-3B DEB - Visible Passes

Search period start: 14 February 2026 00:00
Search period end: 24 February 2026 00:00
Orbit: 647 x 41814 km, 26.5° (Epoch: 9 February)

Date Brightness Start Highest point End Pass type
(mag) Time Alt. Az. Time Alt. Az. Time Alt. Az.
14 Feb ? 22:58:38 38° E 22:58:38 38° E 10:32:09 10° E visible
16 Feb ? 00:21:08 68° E 00:21:08 68° E 11:59:18 10° ENE visible
17 Feb ? 01:43:38 79° WSW 01:52:49 81° SW 13:24:56 10° ENE visible
18 Feb ? 03:06:09 49° W 03:57:55 61° SW 14:49:28 10° NNE visible
19 Feb ? 04:28:40 22° W 05:40:06 38° WSW 10:10:24 10° WSW visible
21 Feb ? 01:06:24 10° ESE 03:48:00 22° ESE 05:11:46 10° ESE visible
21 Feb ? 23:49:57 10° ESE 05:15:43 41° SE 07:02:45 10° ESE visible
22 Feb ? 20:30:26 10° NNW 21:17:34 13° E 08:37:51 10° E visible
